RYR84KK LEAM-EBCI

Flight info

Callsign RYR84KK
Flight time 2h 25m
Altitude 36000
Route AGIDO M192 ARPEX DCT BAZAS M192 BLN N865 VTB N867 RBO DCT OSTIX N867 DGO L176 LUSEM/N0428F340 DCT LULUT DCT ADABI DCT BOKNO UN858 VANAD UN874 BAMES UT191 PODEM UN873 BAZOS DCT BELDI DCT VEKIN Z173 ARVOL
Aircraft B738/M-SDE2E3FGHIRWXY/LB1

Departure

Time 2026-05-04 11:37
Airport Almería Airport (LEAM)

Arrival

Time 2026-05-04 14:02
Airport Brussels South Charleroi Airport (EBCI)
Time Latitude Longitude Altitude Speed Heading
2026-05-04 11:14 36.84676 -2.37155 59 ft 0 kts 148°
2026-05-04 11:31 36.84636 -2.37050 67 ft 6 kts 72°
2026-05-04 11:33 36.84697 -2.36486 57 ft 12 kts 74°
2026-05-04 11:33 36.84726 -2.36370 59 ft 16 kts 72°
2026-05-04 11:33 36.84759 -2.36241 58 ft 15 kts 72°
2026-05-04 11:34 36.84789 -2.36115 60 ft 15 kts 73°
2026-05-04 11:34 36.84818 -2.35995 62 ft 14 kts 73°
2026-05-04 11:34 36.84847 -2.35880 63 ft 14 kts 73°
2026-05-04 11:34 36.84878 -2.35750 61 ft 17 kts 73°
2026-05-04 11:35 36.84913 -2.35604 56 ft 17 kts 72°
2026-05-04 11:35 36.84949 -2.35463 61 ft 17 kts 75°
2026-05-04 11:35 36.84923 -2.35340 60 ft 13 kts 142°
2026-05-04 11:35 36.84839 -2.35308 61 ft 11 kts 169°
2026-05-04 11:36 36.84798 -2.35369 61 ft 10 kts 251°
2026-05-04 11:36 36.84776 -2.35454 54 ft 8 kts 252°
2026-05-04 11:36 36.84774 -2.35461 54 ft 0 kts 252°
2026-05-04 11:36 36.84774 -2.35462 60 ft 1 kts 252°
2026-05-04 11:37 36.84738 -2.35611 53 ft 49 kts 253°
2026-05-04 11:37 36.84569 -2.36290 57 ft 113 kts 253°
2026-05-04 11:37 36.84277 -2.37427 149 ft 155 kts 251°
2026-05-04 11:37 36.83983 -2.38744 824 ft 159 kts 249°
2026-05-04 11:38 36.83665 -2.40044 1686 ft 153 kts 251°
2026-05-04 11:38 36.83336 -2.41341 2332 ft 163 kts 249°
2026-05-04 11:38 36.82944 -2.42755 2766 ft 183 kts 249°
2026-05-04 11:38 36.82551 -2.44274 3451 ft 180 kts 251°
2026-05-04 11:39 36.82175 -2.45763 4120 ft 185 kts 251°
2026-05-04 11:39 36.81760 -2.47362 4340 ft 201 kts 250°
2026-05-04 11:40 36.73671 -2.47834 7387 ft 242 kts 171°
2026-05-04 11:41 36.72066 -2.47198 8047 ft 246 kts 160°
2026-05-04 11:41 36.70809 -2.45732 8398 ft 260 kts 120°
2026-05-04 11:41 36.70428 -2.43458 8481 ft 279 kts 84°
2026-05-04 11:41 36.70964 -2.41149 8527 ft 279 kts 69°
2026-05-04 11:42 36.71631 -2.38862 8500 ft 282 kts 71°
2026-05-04 11:42 36.72256 -2.36538 8512 ft 283 kts 72°
2026-05-04 11:42 36.72853 -2.34191 8502 ft 285 kts 72°
2026-05-04 11:42 36.73462 -2.31832 8499 ft 286 kts 66°
2026-05-04 11:43 36.74602 -2.29859 8496 ft 279 kts 33°
2026-05-04 11:43 36.76302 -2.28800 8538 ft 275 kts
2026-05-04 11:43 36.78242 -2.28544 8760 ft 289 kts 354°
2026-05-04 11:43 36.80286 -2.28561 9283 ft 298 kts 353°
2026-05-04 11:44 36.82371 -2.28606 9980 ft 301 kts 353°
2026-05-04 11:44 36.84505 -2.28651 10390 ft 316 kts 353°
2026-05-04 11:44 36.86789 -2.28694 10550 ft 339 kts 353°
2026-05-04 11:44 36.89215 -2.28726 10794 ft 357 kts 354°
2026-05-04 11:45 36.91727 -2.28745 11313 ft 364 kts 354°
2026-05-04 11:45 36.94244 -2.28758 11960 ft 368 kts 354°
2026-05-04 11:45 36.96812 -2.28771 12661 ft 371 kts 354°
2026-05-04 11:45 36.99404 -2.28789 13413 ft 372 kts 354°
2026-05-04 11:46 37.02022 -2.28901 14017 ft 372 kts 345°
2026-05-04 11:46 37.04379 -2.29974 14503 ft 363 kts 321°
2026-05-04 11:46 37.06273 -2.31976 15216 ft 352 kts 304°
2026-05-04 11:46 37.07606 -2.34493 15938 ft 345 kts 293°
2026-05-04 11:47 37.08750 -2.37150 16596 ft 348 kts 292°
2026-05-04 11:47 37.09873 -2.39849 17253 ft 351 kts 291°
2026-05-04 11:47 37.11007 -2.42570 17936 ft 354 kts 291°
2026-05-04 11:47 37.12161 -2.45310 18544 ft 357 kts 291°
2026-05-04 11:48 37.13335 -2.48071 19118 ft 360 kts 292°
2026-05-04 11:48 37.14135 -2.49943 19516 ft 362 kts 292°
2026-05-04 11:48 37.15331 -2.52733 20083 ft 365 kts 291°
2026-05-04 11:48 37.16538 -2.55548 20643 ft 368 kts 291°
2026-05-04 11:49 37.17752 -2.58382 21221 ft 371 kts 291°
2026-05-04 11:49 37.18965 -2.61198 21795 ft 374 kts 293°
2026-05-04 11:49 37.20580 -2.63839 22334 ft 393 kts 310°
2026-05-04 11:49 37.22729 -2.66087 22869 ft 399 kts 313°
2026-05-04 11:50 37.24908 -2.68274 23401 ft 403 kts 313°
2026-05-04 11:50 37.27070 -2.70446 23873 ft 404 kts 313°
2026-05-04 11:50 37.29259 -2.72665 24307 ft 406 kts 313°
2026-05-04 11:50 37.31448 -2.74905 24748 ft 406 kts 312°
2026-05-04 11:51 37.33635 -2.77157 25189 ft 406 kts 312°
2026-05-04 11:51 37.35821 -2.79417 25585 ft 408 kts 312°
2026-05-04 11:51 37.38023 -2.81697 25892 ft 412 kts 312°
2026-05-04 11:51 37.40243 -2.83996 26238 ft 414 kts 312°
2026-05-04 11:52 37.42472 -2.86303 26648 ft 416 kts 312°
2026-05-04 11:52 37.44709 -2.88617 27087 ft 417 kts 312°
2026-05-04 11:52 37.46957 -2.90943 27441 ft 420 kts 312°
2026-05-04 11:52 37.49218 -2.93285 27781 ft 422 kts 312°
2026-05-04 11:53 37.51488 -2.95638 28142 ft 424 kts 312°
2026-05-04 11:53 37.53769 -2.98004 28518 ft 425 kts 312°
2026-05-04 11:53 37.56048 -3.00368 28995 ft 424 kts 312°
2026-05-04 11:53 37.58317 -3.02723 29576 ft 420 kts 311°
2026-05-04 11:55 37.73860 -3.18980 32363 ft 415 kts 311°
2026-05-04 11:55 37.76081 -3.21298 32741 ft 414 kts 311°
2026-05-04 11:56 37.78302 -3.23612 33087 ft 413 kts 311°
2026-05-04 11:56 37.80515 -3.25921 33444 ft 412 kts 311°
2026-05-04 11:56 37.82728 -3.28232 33767 ft 412 kts 311°
2026-05-04 11:56 37.84938 -3.30544 34013 ft 414 kts 311°
2026-05-04 11:57 37.87170 -3.32885 33997 ft 418 kts 311°
2026-05-04 11:57 37.91642 -3.37570 34025 ft 415 kts 312°
2026-05-04 11:58 37.96058 -3.42201 34011 ft 411 kts 311°
2026-05-04 11:58 38.00463 -3.46836 34008 ft 412 kts 311°
2026-05-04 11:59 38.04837 -3.51445 33992 ft 411 kts 311°
2026-05-04 11:59 38.09232 -3.56083 33990 ft 411 kts 311°
2026-05-04 12:00 38.13791 -3.60501 34013 ft 424 kts 324°
2026-05-04 12:00 38.16608 -3.61816 34000 ft 440 kts 338°
2026-05-04 12:00 38.19699 -3.62262 33993 ft 457 kts 354°
2026-05-04 12:01 38.26088 -3.61656 33995 ft 462 kts 357°
2026-05-04 12:02 38.48471 -3.59270 33981 ft 461 kts 356°
2026-05-04 12:03 38.54865 -3.58649 33980 ft 461 kts 356°
2026-05-04 12:03 38.61253 -3.58024 34007 ft 460 kts 356°
2026-05-04 12:04 38.67642 -3.57397 33994 ft 461 kts 356°
2026-05-04 12:04 38.74038 -3.56767 33978 ft 461 kts 356°
2026-05-04 12:05 38.80427 -3.56137 33982 ft 460 kts 356°
2026-05-04 12:05 38.86818 -3.55506 34001 ft 461 kts 356°
2026-05-04 12:06 38.93216 -3.54873 33994 ft 461 kts 356°
2026-05-04 12:06 38.99618 -3.54238 33983 ft 461 kts 356°
2026-05-04 12:07 39.06015 -3.53606 33988 ft 461 kts 356°
2026-05-04 12:07 39.12408 -3.52976 33991 ft 461 kts 356°
2026-05-04 12:08 39.18802 -3.52344 33979 ft 461 kts 356°
2026-05-04 12:08 39.25195 -3.51710 33979 ft 461 kts 356°
2026-05-04 12:09 39.31592 -3.51075 34027 ft 461 kts 356°
2026-05-04 12:09 39.37951 -3.50443 33989 ft 461 kts 356°
2026-05-04 12:10 39.44353 -3.49804 33973 ft 461 kts 356°
2026-05-04 12:10 39.50754 -3.49165 33976 ft 461 kts 356°
2026-05-04 12:11 39.57157 -3.48525 33979 ft 462 kts 356°
2026-05-04 12:11 39.63573 -3.47877 33979 ft 462 kts 356°
2026-05-04 12:12 39.69989 -3.47225 33969 ft 462 kts 356°
2026-05-04 12:12 39.76403 -3.46573 34007 ft 462 kts 356°
2026-05-04 12:14 40.02079 -3.41609 33980 ft 468 kts
2026-05-04 12:15 40.08516 -3.40317 33981 ft 468 kts
2026-05-04 12:15 40.14946 -3.39027 33979 ft 469 kts
2026-05-04 12:16 40.21395 -3.37730 34002 ft 469 kts
2026-05-04 12:16 40.27850 -3.36428 33967 ft 470 kts
2026-05-04 12:17 40.34308 -3.35122 33969 ft 470 kts
2026-05-04 12:17 40.40769 -3.33812 33971 ft 469 kts
2026-05-04 12:18 40.47225 -3.32503 33972 ft 470 kts
2026-05-04 12:18 40.53680 -3.31189 33963 ft 469 kts
2026-05-04 12:19 40.60110 -3.29878 33964 ft 467 kts
2026-05-04 12:19 40.66519 -3.28569 33960 ft 465 kts
2026-05-04 12:20 40.72903 -3.27264 33965 ft 463 kts
2026-05-04 12:20 40.79266 -3.25960 33962 ft 462 kts
2026-05-04 12:21 40.85617 -3.24656 33981 ft 462 kts
2026-05-04 12:21 40.91971 -3.23264 33979 ft 463 kts
2026-05-04 12:22 40.98326 -3.21816 33963 ft 464 kts
2026-05-04 12:22 41.04686 -3.20372 33969 ft 464 kts
2026-05-04 12:23 41.11045 -3.18937 33980 ft 464 kts
2026-05-04 12:23 41.17412 -3.17499 33978 ft 465 kts
2026-05-04 12:24 41.23793 -3.16055 33978 ft 466 kts
2026-05-04 12:24 41.30179 -3.14607 33977 ft 466 kts
2026-05-04 12:25 41.36570 -3.13154 33991 ft 466 kts
2026-05-04 12:25 41.42959 -3.11699 33978 ft 466 kts
2026-05-04 12:26 41.49344 -3.10242 33986 ft 465 kts
2026-05-04 12:26 41.55713 -3.08796 33994 ft 465 kts
2026-05-04 12:27 41.62085 -3.07356 33990 ft 464 kts
2026-05-04 12:27 41.68401 -3.05924 33987 ft 463 kts
2026-05-04 12:28 41.74738 -3.04481 33990 ft 462 kts
2026-05-04 12:28 41.81084 -3.03025 33992 ft 463 kts
2026-05-04 12:29 41.87449 -3.01559 33998 ft 466 kts
2026-05-04 12:29 41.93853 -3.00082 33989 ft 468 kts
2026-05-04 12:30 42.00281 -2.98595 33999 ft 470 kts
2026-05-04 12:30 42.06730 -2.97101 33988 ft 471 kts
2026-05-04 12:31 42.13222 -2.95595 34084 ft 478 kts
2026-05-04 12:31 42.16502 -2.94833 34316 ft 479 kts
2026-05-04 12:31 42.19776 -2.94070 34622 ft 477 kts
2026-05-04 12:32 42.23044 -2.93307 34959 ft 475 kts
2026-05-04 12:32 42.29543 -2.91790 35488 ft 474 kts
2026-05-04 12:32 42.32801 -2.91029 35687 ft 475 kts
2026-05-04 12:33 42.36057 -2.90268 35935 ft 474 kts
2026-05-04 12:33 42.38214 -2.89763 36042 ft 476 kts
2026-05-04 12:33 42.41477 -2.88918 36001 ft 481 kts 12°
2026-05-04 12:33 42.44646 -2.87400 36103 ft 486 kts 23°
2026-05-04 12:34 42.47612 -2.85211 36368 ft 486 kts 32°
2026-05-04 12:34 42.50286 -2.82416 36655 ft 485 kts 40°
2026-05-04 12:34 42.52800 -2.79373 36965 ft 483 kts 41°
2026-05-04 12:34 42.55280 -2.76295 37178 ft 484 kts 41°
2026-05-04 12:35 42.57763 -2.73208 37325 ft 485 kts 41°
2026-05-04 12:35 42.60265 -2.70121 37493 ft 487 kts 41°
2026-05-04 12:35 42.62779 -2.67045 37687 ft 486 kts 41°
2026-05-04 12:35 42.65299 -2.63982 37872 ft 487 kts 41°
2026-05-04 12:36 42.67825 -2.60919 37984 ft 488 kts 41°
2026-05-04 12:36 42.72912 -2.54753 38018 ft 491 kts 41°
2026-05-04 12:37 42.77986 -2.48586 38009 ft 488 kts 41°
2026-05-04 12:37 42.83030 -2.42435 38006 ft 485 kts 41°
2026-05-04 12:38 42.88046 -2.36304 38016 ft 483 kts 41°
2026-05-04 12:38 42.93039 -2.30186 38028 ft 482 kts 41°
2026-05-04 12:39 42.98033 -2.24056 38010 ft 483 kts 41°
2026-05-04 12:39 43.03021 -2.17901 38021 ft 484 kts 41°
2026-05-04 12:40 43.08014 -2.11718 38019 ft 485 kts 41°
2026-05-04 12:40 43.12992 -2.05547 38017 ft 487 kts 41°
2026-05-04 12:41 43.18016 -1.99314 38019 ft 488 kts 41°
2026-05-04 12:41 43.23048 -1.93053 38030 ft 489 kts 42°
2026-05-04 12:42 43.28091 -1.86764 38008 ft 490 kts 41°
2026-05-04 12:42 43.33431 -1.80994 38017 ft 489 kts 27°
2026-05-04 12:43 43.39418 -1.76552 38015 ft 490 kts 29°
2026-05-04 12:43 43.45172 -1.71502 38035 ft 491 kts 33°
2026-05-04 12:44 43.50811 -1.66212 38012 ft 490 kts 33°
2026-05-04 12:44 43.56457 -1.60986 38014 ft 488 kts 32°
2026-05-04 12:45 43.62111 -1.55832 38014 ft 486 kts 32°
2026-05-04 12:45 43.67753 -1.50706 37982 ft 485 kts 32°
2026-05-04 12:46 43.73376 -1.45585 37998 ft 483 kts 32°
2026-05-04 12:46 43.78983 -1.40460 37992 ft 483 kts 32°
2026-05-04 12:47 43.84577 -1.35335 38006 ft 482 kts 33°
2026-05-04 12:47 43.90170 -1.30199 37983 ft 482 kts 33°
2026-05-04 12:48 43.95757 -1.25056 37988 ft 482 kts 33°
2026-05-04 12:48 44.01347 -1.19899 37971 ft 483 kts 33°
2026-05-04 12:49 44.06938 -1.14729 37981 ft 483 kts 33°
2026-05-04 12:49 44.12533 -1.09543 37966 ft 483 kts 33°
2026-05-04 12:50 44.18129 -1.04344 37963 ft 484 kts 33°
2026-05-04 12:50 44.23725 -0.99134 37955 ft 484 kts 33°
2026-05-04 12:51 44.29329 -0.93903 37957 ft 485 kts 33°
2026-05-04 12:51 44.34936 -0.88657 37945 ft 485 kts 33°
2026-05-04 12:52 44.40591 -0.83501 37939 ft 485 kts 27°
2026-05-04 12:52 44.46676 -0.79614 37939 ft 484 kts 22°
2026-05-04 12:53 44.52889 -0.75975 37912 ft 484 kts 21°
2026-05-04 12:53 44.59088 -0.72281 37934 ft 484 kts 22°
2026-05-04 12:54 44.65262 -0.68519 37940 ft 483 kts 22°
2026-05-04 12:54 44.71419 -0.64732 37936 ft 483 kts 22°
2026-05-04 12:55 44.77575 -0.60933 37942 ft 483 kts 22°
2026-05-04 12:55 44.83727 -0.57131 37941 ft 482 kts 22°
2026-05-04 12:56 44.89872 -0.53327 37938 ft 482 kts 22°
2026-05-04 12:56 44.96009 -0.49520 37933 ft 482 kts 22°
2026-05-04 12:57 45.02141 -0.45707 37935 ft 482 kts 23°
2026-05-04 12:57 45.08294 -0.41872 37912 ft 484 kts 23°
2026-05-04 12:58 45.14462 -0.38018 37910 ft 484 kts 23°
2026-05-04 12:58 45.20615 -0.34164 37934 ft 483 kts 23°
2026-05-04 12:59 45.26754 -0.30310 37917 ft 482 kts 23°
2026-05-04 12:59 45.32879 -0.26455 37938 ft 482 kts 23°
2026-05-04 13:00 45.39006 -0.22590 37937 ft 481 kts 23°
2026-05-04 13:00 45.45108 -0.18732 37932 ft 480 kts 23°
2026-05-04 13:01 45.51196 -0.14873 37935 ft 478 kts 23°
2026-05-04 13:01 45.57268 -0.11016 37937 ft 477 kts 23°
2026-05-04 13:02 45.63301 -0.07174 37923 ft 478 kts 24°
2026-05-04 13:02 45.69371 -0.03300 37940 ft 478 kts 24°
2026-05-04 13:03 45.75437 0.00582 37916 ft 478 kts 24°
2026-05-04 13:03 45.81508 0.04476 37941 ft 478 kts 24°
2026-05-04 13:04 45.87597 0.08390 37935 ft 481 kts 24°
2026-05-04 13:04 45.93708 0.12329 37929 ft 481 kts 24°
2026-05-04 13:05 45.99828 0.16282 37955 ft 484 kts 24°
2026-05-04 13:05 46.05987 0.20271 37932 ft 485 kts 24°
2026-05-04 13:06 46.12142 0.24267 37930 ft 484 kts 24°
2026-05-04 13:06 46.18277 0.28260 37932 ft 484 kts 24°
2026-05-04 13:07 46.24398 0.32254 37918 ft 482 kts 24°
2026-05-04 13:07 46.30492 0.36240 37920 ft 480 kts 24°
2026-05-04 13:08 46.36570 0.40225 37908 ft 478 kts 24°
2026-05-04 13:08 46.42621 0.44203 37938 ft 477 kts 24°
2026-05-04 13:09 46.48655 0.48179 37938 ft 476 kts 24°
2026-05-04 13:09 46.54688 0.52158 37939 ft 476 kts 23°
2026-05-04 13:10 46.61001 0.54927 37955 ft 474 kts 11°
2026-05-04 13:10 46.67460 0.56931 37942 ft 475 kts 11°
2026-05-04 13:11 46.73926 0.58974 37929 ft 476 kts 11°
2026-05-04 13:11 46.80397 0.61100 37939 ft 477 kts 12°
2026-05-04 13:12 46.86875 0.63256 37933 ft 478 kts 12°
2026-05-04 13:12 46.93369 0.65418 37930 ft 479 kts 12°
2026-05-04 13:13 46.99870 0.67585 37939 ft 479 kts 12°
2026-05-04 13:13 47.06400 0.69553 37911 ft 478 kts
2026-05-04 13:14 47.13022 0.70263 37925 ft 477 kts
2026-05-04 13:14 47.19648 0.70798 37932 ft 477 kts
2026-05-04 13:15 47.26266 0.71437 37935 ft 476 kts
2026-05-04 13:15 47.32879 0.72133 37924 ft 478 kts
2026-05-04 13:16 47.39497 0.72835 37936 ft 476 kts
2026-05-04 13:16 47.46096 0.73530 37938 ft 475 kts
2026-05-04 13:17 47.52599 0.75147 37948 ft 475 kts 17°
2026-05-04 13:17 47.58860 0.78305 37951 ft 476 kts 18°
2026-05-04 13:18 47.65131 0.81508 37927 ft 476 kts 18°
2026-05-04 13:18 47.71361 0.84601 37913 ft 474 kts 18°
2026-05-04 13:19 47.77612 0.87683 37934 ft 473 kts 18°
2026-05-04 13:19 47.83845 0.90769 37938 ft 472 kts 18°
2026-05-04 13:20 47.89056 0.93386 37936 ft 471 kts 18°
2026-05-04 13:20 47.95219 0.96511 37943 ft 471 kts 18°
2026-05-04 13:21 48.01457 0.99679 37955 ft 470 kts 18°
2026-05-04 13:21 48.07618 1.02812 37952 ft 471 kts 18°
2026-05-04 13:22 48.13828 1.05977 37954 ft 473 kts 18°
2026-05-04 13:22 48.20055 1.09158 37943 ft 473 kts 18°
2026-05-04 13:23 48.26284 1.12338 37958 ft 473 kts 18°
2026-05-04 13:23 48.32521 1.15515 37952 ft 473 kts 18°
2026-05-04 13:24 48.38760 1.18702 37955 ft 474 kts 18°
2026-05-04 13:24 48.45001 1.21902 37964 ft 474 kts 18°
2026-05-04 13:25 48.54359 1.26715 37956 ft 474 kts 18°
2026-05-04 13:25 48.60602 1.29890 37953 ft 473 kts 18°
2026-05-04 13:26 48.66856 1.33029 37965 ft 473 kts 18°
2026-05-04 13:26 48.73097 1.36175 37983 ft 473 kts 18°
2026-05-04 13:27 48.79354 1.39347 37949 ft 474 kts 18°
2026-05-04 13:27 48.85607 1.42528 37961 ft 473 kts 18°
2026-05-04 13:28 48.91840 1.45706 37958 ft 472 kts 18°
2026-05-04 13:28 48.98083 1.48794 37962 ft 471 kts 13°
2026-05-04 13:29 49.04526 1.50418 37958 ft 469 kts
2026-05-04 13:29 49.10981 1.51765 37978 ft 468 kts
2026-05-04 13:30 49.17417 1.53247 37968 ft 467 kts
2026-05-04 13:30 49.23786 1.55121 37958 ft 467 kts 19°
2026-05-04 13:31 49.26748 1.57146 38002 ft 467 kts 30°
2026-05-04 13:31 49.29406 1.59885 37961 ft 467 kts 41°
2026-05-04 13:31 49.34095 1.66730 37972 ft 465 kts 45°
2026-05-04 13:32 49.38717 1.73674 37974 ft 465 kts 45°
2026-05-04 13:32 49.43382 1.80557 37954 ft 465 kts 44°
2026-05-04 13:33 49.48066 1.87435 37951 ft 466 kts 44°
2026-05-04 13:33 49.52755 1.94346 37952 ft 468 kts 44°
2026-05-04 13:34 49.55125 1.97846 37411 ft 475 kts 45°
2026-05-04 13:34 49.57505 2.01364 36913 ft 472 kts 45°
2026-05-04 13:34 49.59853 2.04840 36791 ft 461 kts 45°
2026-05-04 13:34 49.62147 2.08240 36856 ft 456 kts 45°
2026-05-04 13:35 49.69098 2.18581 36909 ft 471 kts 45°
2026-05-04 13:36 49.73831 2.25645 36874 ft 474 kts 45°
2026-05-04 13:36 49.78576 2.32746 36891 ft 475 kts 45°
2026-05-04 13:36 49.80961 2.36323 36346 ft 480 kts 45°
2026-05-04 13:37 49.83368 2.39939 35568 ft 483 kts 46°
2026-05-04 13:37 49.85783 2.43572 34856 ft 485 kts 46°
2026-05-04 13:37 49.88213 2.47234 34145 ft 488 kts 47°
2026-05-04 13:37 49.89838 2.49686 33631 ft 490 kts 47°
2026-05-04 13:38 49.95174 2.57750 31910 ft 492 kts 46°
2026-05-04 13:38 49.97625 2.61468 31149 ft 492 kts 46°
2026-05-04 13:38 50.00068 2.65190 30408 ft 492 kts 46°
2026-05-04 13:39 50.02505 2.68911 29615 ft 490 kts 46°
2026-05-04 13:39 50.04931 2.72622 28775 ft 488 kts 46°
2026-05-04 13:39 50.07335 2.76304 27930 ft 481 kts 46°
2026-05-04 13:39 50.09698 2.79926 27124 ft 472 kts 46°
2026-05-04 13:40 50.12014 2.83481 26442 ft 462 kts 46°
2026-05-04 13:40 50.14279 2.86963 25806 ft 452 kts 46°
2026-05-04 13:40 50.16492 2.90372 25187 ft 443 kts 46°
2026-05-04 13:40 50.18665 2.93723 24575 ft 435 kts 46°
2026-05-04 13:41 50.20797 2.97017 23989 ft 428 kts 45°
2026-05-04 13:41 50.22895 3.00261 23394 ft 421 kts 45°
2026-05-04 13:41 50.24959 3.03457 22730 ft 416 kts 45°
2026-05-04 13:42 50.29025 3.09766 21395 ft 408 kts 45°
2026-05-04 13:42 50.31022 3.12871 20745 ft 401 kts 45°
2026-05-04 13:42 50.32984 3.15923 20123 ft 395 kts 45°
2026-05-04 13:42 50.34917 3.18935 19502 ft 389 kts 45°
2026-05-04 13:43 50.36818 3.21900 18904 ft 383 kts 45°
2026-05-04 13:43 50.38698 3.24834 18318 ft 378 kts 45°
2026-05-04 13:43 50.40547 3.27725 17653 ft 373 kts 45°
2026-05-04 13:43 50.42376 3.30578 16991 ft 369 kts 45°
2026-05-04 13:44 50.44187 3.33400 16357 ft 365 kts 45°
2026-05-04 13:44 50.45956 3.36159 16082 ft 351 kts 45°
2026-05-04 13:44 50.47651 3.38807 15865 ft 337 kts 45°
2026-05-04 13:44 50.49278 3.41351 15648 ft 324 kts 45°
2026-05-04 13:45 50.50852 3.43815 15441 ft 315 kts 45°
2026-05-04 13:45 50.52385 3.46218 15235 ft 309 kts 45°
2026-05-04 13:45 50.53903 3.48619 15037 ft 311 kts 48°
2026-05-04 13:45 50.55015 3.51533 14698 ft 314 kts 72°
2026-05-04 13:46 50.55651 3.54800 14426 ft 312 kts 74°
2026-05-04 13:46 50.56257 3.58088 13988 ft 314 kts 75°
2026-05-04 13:46 50.56865 3.61411 13659 ft 317 kts 75°
2026-05-04 13:46 50.57476 3.64734 13282 ft 316 kts 74°
2026-05-04 13:47 50.58088 3.68038 12897 ft 314 kts 74°
2026-05-04 13:47 50.58701 3.71332 12548 ft 313 kts 74°
2026-05-04 13:47 50.59313 3.74609 12200 ft 311 kts 74°
2026-05-04 13:47 50.59922 3.77869 11865 ft 310 kts 74°
2026-05-04 13:48 50.60528 3.81111 11533 ft 308 kts 74°
2026-05-04 13:48 50.61121 3.84287 11258 ft 304 kts 74°
2026-05-04 13:48 50.61721 3.87505 11002 ft 300 kts 74°
2026-05-04 13:48 50.62297 3.90594 10751 ft 296 kts 74°
2026-05-04 13:49 50.62873 3.93692 10512 ft 293 kts 74°
2026-05-04 13:49 50.63441 3.96755 10269 ft 289 kts 74°
2026-05-04 13:49 50.64002 3.99779 10026 ft 286 kts 74°
2026-05-04 13:49 50.64558 4.02781 9778 ft 285 kts 74°
2026-05-04 13:50 50.65108 4.05760 9508 ft 282 kts 74°
2026-05-04 13:50 50.65652 4.08711 9244 ft 279 kts 74°
2026-05-04 13:50 50.66190 4.11630 8982 ft 277 kts 74°
2026-05-04 13:50 50.66724 4.14532 8728 ft 274 kts 74°
2026-05-04 13:51 50.67253 4.17412 8472 ft 274 kts 74°
2026-05-04 13:51 50.67572 4.20371 8195 ft 276 kts 96°
2026-05-04 13:51 50.66860 4.23142 8060 ft 281 kts 129°
2026-05-04 13:51 50.65594 4.25543 8057 ft 287 kts 130°
2026-05-04 13:52 50.63121 4.30358 7972 ft 275 kts 129°
2026-05-04 13:52 50.61953 4.32681 7973 ft 266 kts 129°
2026-05-04 13:52 50.60820 4.34950 7976 ft 262 kts 128°
2026-05-04 13:53 50.59694 4.37218 7920 ft 266 kts 128°
2026-05-04 13:53 50.58533 4.39561 7545 ft 276 kts 128°
2026-05-04 13:53 50.57353 4.41943 7252 ft 275 kts 128°
2026-05-04 13:54 50.55009 4.46678 6669 ft 273 kts 128°
2026-05-04 13:54 50.53843 4.49035 6377 ft 272 kts 128°
2026-05-04 13:54 50.51527 4.53716 5750 ft 271 kts 128°
2026-05-04 13:55 50.50373 4.56046 5452 ft 270 kts 128°
2026-05-04 13:55 50.48073 4.60685 4861 ft 268 kts 128°
2026-05-04 13:55 50.46925 4.62994 4554 ft 267 kts 128°
2026-05-04 13:56 50.45799 4.65305 4231 ft 266 kts 123°
2026-05-04 13:56 50.45292 4.68019 4009 ft 258 kts 86°
2026-05-04 13:56 50.46867 4.72498 3994 ft 222 kts 40°
2026-05-04 13:57 50.48123 4.73695 3972 ft 202 kts 20°
2026-05-04 13:57 50.49460 4.74193 4021 ft 198 kts 11°
2026-05-04 13:58 50.53120 4.73197 3332 ft 180 kts 286°
2026-05-04 13:58 50.52690 4.69679 3067 ft 165 kts 251°
2026-05-04 13:58 50.52315 4.67967 3009 ft 166 kts 251°
2026-05-04 13:59 50.51961 4.66244 2994 ft 164 kts 251°
2026-05-04 13:59 50.51573 4.64584 2978 ft 165 kts 247°
2026-05-04 13:59 50.50634 4.61263 2584 ft 166 kts 246°
2026-05-04 14:00 50.50155 4.59622 2364 ft 163 kts 246°
2026-05-04 14:00 50.49273 4.56595 1953 ft 143 kts 245°
2026-05-04 14:00 50.48857 4.55169 1764 ft 144 kts 245°
2026-05-04 14:01 50.48438 4.53731 1563 ft 146 kts 245°
2026-05-04 14:01 50.48016 4.52278 1367 ft 147 kts 245°
2026-05-04 14:01 50.47161 4.49317 919 ft 150 kts 244°
2026-05-04 14:02 50.46723 4.47839 702 ft 149 kts 244°
2026-05-04 14:02 50.46305 4.46376 594 ft 142 kts 243°
2026-05-04 14:02 50.45961 4.45221 589 ft 74 kts 246°
2026-05-04 14:02 50.45875 4.44859 595 ft 20 kts 288°
2026-05-04 14:03 50.45971 4.44767 595 ft 15 kts 353°
2026-05-04 14:03 50.46037 4.44841 596 ft 11 kts 64°
2026-05-04 14:03 50.46069 4.44954 596 ft 11 kts 66°
2026-05-04 14:03 50.46101 4.45069 595 ft 11 kts 65°
2026-05-04 14:04 50.46168 4.45289 598 ft 11 kts 65°
2026-05-04 14:04 50.46206 4.45421 598 ft 15 kts 66°
2026-05-04 14:04 50.46247 4.45564 599 ft 14 kts 66°
2026-05-04 14:05 50.46326 4.45839 596 ft 13 kts 65°
2026-05-04 14:05 50.46368 4.45984 595 ft 17 kts 65°
2026-05-04 14:05 50.46422 4.46168 590 ft 19 kts 65°
2026-05-04 14:06 50.46476 4.46356 588 ft 19 kts 66°
2026-05-04 14:06 50.46521 4.46512 588 ft 12 kts 65°
2026-05-04 14:06 50.46587 4.46548 590 ft 11 kts 335°
2026-05-04 14:06 50.46655 4.46573 587 ft 12 kts 58°
2026-05-04 14:07 50.46692 4.46691 587 ft 12 kts 65°
2026-05-04 14:07 50.46726 4.46811 586 ft 12 kts 66°
2026-05-04 14:07 50.46759 4.46927 585 ft 9 kts 65°
2026-05-04 14:07 50.46789 4.46957 584 ft 5 kts 337°
2026-05-04 14:08 50.46817 4.46935 584 ft 3 kts 336°
2026-05-04 14:08 50.46822 4.46931 584 ft 0 kts 335°